sat.trackr.live / text

‹ back to catalog

STARLINK-36370

NORAD 67937 · 2026-037F

PAYLOAD ACTIVE UNKNOWN

§ Identity

Operator
Country
US
Launch date
2026-02-24
Launch site
AFETR
Launch vehicle
Mass (kg)
RCS (m²)

Purposes: comms

External: N2YO · Heavens-Above · Gunter

§ Orbital elements

Epoch: 2026-09-19T03:19:44.095584Z

Period
94.27 min
Inclination
43.0001°
Eccentricity
0.0001293
Mean motion
15.27588957 rev/d
Perigee alt
482.1 km
Apogee alt
483.9 km
Semi-major
6,861.2 km
B*
4.6336e-4
RAAN
178.4631°
Arg perigee
274.1354°
Mean anomaly
85.9350°
Rev number
3,292

§ Raw data

STARLINK-363701 67937U 26037F   26262.13870481  .00012514  00000+0  46336-3 0  99972 67937  43.0001 178.4631 0001293 274.1354  85.9350 15.27588957 32926

JSON: /api/v1/satellites/67937 · /tle

For live sub-satellite position, see the globe view (requires WebGL).

§ Visibility from observer

Set your observer location to see the next 7 days of passes ≥ 10°. The values pass through the URL so the page stays shareable.

No JS? Fill the form by hand. The geolocation button needs JavaScript.